Miscellaneous Local Product
Issued by NWS Hastings, NE

Home | Current Version | Previous Version | Text Only | Print | Product List | Glossary Off
Versions: 1 2 3 4 5 6 7 8 9 10 11 12 13 14 15 16 17 18 19 20 21 22 23 24 25 26 27 28 29 30 31 32 33 34 35 36 37 38 39 40 41 42 43 44 45 46 47 48 49 50

000
AXUS43 KGID 250502
MISGRI

GID CWA HOURLY WEATHER ROUNDUP
NATIONAL WEATHER SERVICE HASTINGS NE
1200 AM CDT MON MAY 25 2015

NOTE: "FAIR" INDICATES FEW OR NO CLOUDS BELOW 12,000 FEET WITH NO
SIGNIFICANT WEATHER AND/OR OBSTRUCTIONS TO VISIBILITY.

...SOUTH CENTRAL NEBRASKA...

CITY           SKY/WX    TMP DP  RH WIND       PRES   REMARKS
GRAND ISLAND   PTCLDY    59  57  93 S6        29.80S
HASTINGS       MOCLDY    61  59  93 S7        29.80S
KEARNEY        MOCLDY    57  55  94 S5        29.81F
ORD            MOCLDY    57  55  93 CALM      29.79S
YORK           MOCLDY    61  59  94 SW6       29.80F
AURORA         MOCLDY    62  62  99 S3        29.80F
LEXINGTON      LGT RAIN  58  53  85 W16       29.83R
HOLDREGE       MOCLDY    59  57  94 SE7       29.81F
HEBRON         CLOUDY    61  59  92 SW3       29.81S

...NEBRASKA PANHANDLE...

CITY           SKY/WX    TMP DP  RH WIND       PRES   REMARKS
CHADRON        LGT RAIN  54  50  86 SE12      29.82F
ALLIANCE       LGT RAIN  52  48  86 E15       29.84R
SCOTTSBLUFF    CLOUDY    53  50  89 S6        29.85R
SIDNEY         CLOUDY    52  47  83 NE8       29.84F

...WESTERN AND NORTH CENTRAL NEBRASKA...

CITY           SKY/WX    TMP DP  RH WIND       PRES   REMARKS
VALENTINE      CLOUDY    59  56  89 NE6       29.82S
AINSWORTH      CLOUDY    58  58 100 E5        29.82S
ONEILL         CLOUDY    60  59  99 CALM      29.82R FOG
BROKEN BOW     CLOUDY    58  56  93 CALM      29.80S
IMPERIAL       CLOUDY    52  50  93 SE7       29.79F
NORTH PLATTE   CLOUDY    53  51  93 CALM      29.80F
MCCOOK         CLOUDY    54  51  90 CALM      29.80F

...EASTERN NEBRASKA...

CITY           SKY/WX    TMP DP  RH WIND       PRES   REMARKS
NORFOLK        CLOUDY    60  59  96 CALM      29.78F
SO SIOUX CITY  FOG       61  59  93 CALM      29.77S VSB 1/2
TEKAMAH        CLOUDY    64  62  93 CALM      29.77F
COLUMBUS       CLOUDY    63  55  77 SW5       29.82F
ALBION         PTCLDY    58  56  91 CALM      29.79F
OMAHA EPPLEY   CLOUDY    66  61  84 SW6       29.78S
OFFUTT AFB     CLOUDY    63  61  91 S5        29.78S
MILLARD        CLOUDY    65  61  86 CALM      29.79R
LINCOLN        CLOUDY    62  60  93 CALM      29.80F
NEBRASKA CITY  CLOUDY    63  63  99 SW6       29.80S
BEATRICE       CLOUDY    61  60  96 CALM      29.81S
FALLS CITY     CLOUDY    63  61  93 S6        29.81S

...NORTHERN KANSAS...

CITY           SKY/WX    TMP DP  RH WIND       PRES   REMARKS
GOODLAND       CLOUDY    52  49  89 E7        29.81F
HILL CITY      LGT RAIN  56  53  90 W17G29    29.88R FOG
NORTON         LGT RAIN  55  46  71 NW9       29.81F
PHILLIPSBURG   RAIN      64  64 100 S14       29.83S
SMITH CENTER   MOCLDY    61  59  94 S12G17    29.83R
HAYS           CLOUDY    61  54  77 S7        29.84F
RUSSELL        CLOUDY    60  58  92 S8        29.82S
CONCORDIA      MOCLDY    62  59  90 SW13      29.82R
SALINA         CLOUDY    60  58  92 S7        29.83S
TOPEKA         CLOUDY    64  62  93 W5        29.82S



USA.gov is the U.S. government's official web portal to all federal, state and local government web resources and services.